Total_Precipitation_Accumulation
0.09 0.04 0.05 0.04 0.08 0.09 0.10 0.13 0.15 0.15 0.13 0.12 0.12 0.12 0.13 0.11 0.08 0.08 0.07 0.10 0.14 0.21 0.25 0.27 0.26 0.24 0.24 0.23 0.18 0.14 0.11 0.11 0.14 0.16 0.20 0.25 0.28 0.28 0.31 0.30 0.38 0.33 0.20
0.07 0.05 0.06 0.04 0.05 0.08 0.09 0.13 0.15 0.14 0.15 0.15 0.15 0.16 0.16 0.11 0.08 0.08 0.08 0.12 0.18 0.23 0.23 0.24 0.23 0.20 0.20 0.17 0.13 0.11 0.10 0.12 0.21 0.28 0.34 0.36 0.40 0.34 0.32 0.30 0.42 0.41 0.24
0.08 0.05 0.05 0.04 0.04 0.06 0.09 0.13 0.14 0.12 0.13 0.15 0.15 0.15 0.12 0.09 0.08 0.07 0.08 0.12 0.18 0.19 0.18 0.14 0.12 0.13 0.13 0.11 0.09 0.09 0.11 0.16 0.29 0.46 0.79 0.68 0.48 0.33 0.31 0.27 0.24 0.20 0.22
0.08 0.05 0.04 0.05 0.05 0.06 0.07 0.11 0.16 0.14 0.13 0.13 0.14 0.12 0.10 0.09 0.09 0.09 0.10 0.13 0.16 0.15 0.12 0.09 0.08 0.08 0.10 0.08 0.08 0.10 0.14 0.22 0.41 0.71 1.32 1.10 0.69 0.42 0.34 0.27 0.21 0.18 0.20
0.07 0.05 0.06 0.07 0.08 0.09 0.08 0.08 0.14 0.16 0.17 0.16 0.17 0.15 0.14 0.13 0.12 0.11 0.12 0.14 0.14 0.13 0.15 0.14 0.12 0.09 0.08 0.09 0.10 0.14 0.23 0.36 0.62 1.02 1.59 1.44 1.11 0.72 0.42 0.33 0.32 0.26 0.24
0.12 0.07 0.07 0.07 0.10 0.13 0.13 0.13 0.14 0.16 0.18 0.20 0.19 0.19 0.17 0.16 0.14 0.12 0.13 0.13 0.14 0.15 0.17 0.20 0.15 0.09 0.08 0.09 0.12 0.18 0.29 0.49 0.72 1.13 1.69 1.58 1.22 0.84 0.49 0.40 0.37 0.31 0.27
0.20 0.16 0.12 0.11 0.11 0.13 0.16 0.20 0.23 0.19 0.19 0.22 0.22 0.20 0.19 0.19 0.17 0.15 0.15 0.14 0.16 0.19 0.21 0.17 0.12 0.08 0.07 0.08 0.14 0.20 0.34 0.61 0.87 1.41 1.72 1.54 1.43 0.90 0.56 0.46 0.42 0.35 0.28
0.30 0.25 0.25 0.19 0.14 0.15 0.19 0.21 0.28 0.30 0.30 0.29 0.27 0.24 0.22 0.19 0.18 0.19 0.19 0.19 0.21 0.25 0.23 0.14 0.08 0.06 0.06 0.07 0.12 0.19 0.36 0.52 0.73 1.33 1.68 1.43 1.18 0.83 0.61 0.50 0.43 0.36 0.30
0.38 0.43 0.40 0.28 0.23 0.24 0.26 0.25 0.28 0.34 0.36 0.35 0.36 0.35 0.31 0.29 0.26 0.25 0.24 0.23 0.25 0.26 0.20 0.13 0.08 0.07 0.07 0.07 0.09 0.14 0.28 0.51 0.76 1.04 1.15 1.29 1.07 0.88 0.66 0.45 0.31 0.26 0.24
0.58 0.59 0.59 0.58 0.50 0.36 0.33 0.34 0.33 0.41 0.43 0.38 0.36 0.38 0.35 0.30 0.27 0.25 0.22 0.23 0.23 0.22 0.18 0.15 0.13 0.10 0.08 0.07 0.08 0.12 0.22 0.34 0.46 0.84 1.28 1.20 0.98 0.99 0.90 0.61 0.38 0.27 0.23
0.78 0.75 0.69 0.75 0.72 0.54 0.45 0.39 0.41 0.46 0.52 0.49 0.42 0.40 0.37 0.43 0.47 0.40 0.31 0.33 0.29 0.26 0.23 0.20 0.16 0.12 0.09 0.07 0.08 0.12 0.15 0.22 0.50 0.99 1.41 1.12 1.02 1.10 1.03 0.83 0.57 0.40 0.30
1.00 0.97 0.92 0.79 0.71 0.66 0.54 0.53 0.58 0.55 0.57 0.55 0.59 0.56 0.58 0.85 0.95 0.75 0.76 0.63 0.53 0.44 0.35 0.29 0.23 0.17 0.12 0.09 0.12 0.15 0.14 0.23 0.60 1.12 1.08 0.91 1.04 1.19 1.24 1.03 0.76 0.56 0.46
1.38 1.17 1.23 1.09 0.91 1.03 1.05 0.89 0.85 0.83 0.84 0.79 0.95 0.97 1.02 1.14 1.10 1.04 1.14 0.94 0.79 0.68 0.63 0.62 0.41 0.31 0.28 0.30 0.30 0.26 0.29 0.36 0.58 0.86 0.97 0.97 1.07 1.27 1.40 1.20 0.93 0.78 0.72
1.81 1.58 1.48 1.47 1.35 1.41 1.64 1.50 1.25 1.14 1.15 1.15 1.22 1.12 1.29 1.42 1.40 1.36 1.42 1.26 1.20 1.16 1.18 1.07 0.90 0.74 0.66 0.57 0.48 0.47 0.47 0.49 0.62 0.87 0.98 0.97 1.04 1.30 1.51 1.43 1.20 1.03 0.95
1.97 1.88 1.65 1.70 1.71 1.79 1.97 1.84 1.68 1.76 1.55 1.42 1.54 1.42 1.46 1.55 1.58 1.67 1.59 1.57 1.47 1.44 1.40 1.26 1.20 1.16 1.05 0.95 0.75 0.70 0.74 0.68 0.73 0.91 0.95 0.99 1.00 1.23 1.55 1.68 1.54 1.33 1.27
1.85 1.93 2.02 1.99 1.99 1.85 1.93 1.94 1.80 1.77 1.83 1.65 1.59 1.55 1.51 1.60 1.80 1.85 1.83 1.83 1.79 1.77 1.84 1.66 1.48 1.55 1.41 1.34 1.19 1.12 1.06 1.04 1.06 1.14 1.31 1.25 1.07 1.14 1.42 1.70 1.75 1.67 1.65
1.84 1.90 2.06 2.08 2.10 2.02 1.97 2.00 1.95 1.85 1.82 1.87 1.90 1.92 1.77 1.71 1.93 2.00 2.16 2.11 2.04 2.01 2.07 2.05 1.92 1.92 1.76 1.65 1.53 1.38 1.32 1.39 1.39 1.35 1.49 1.61 1.39 1.33 1.35 1.48 1.63 1.72 1.79
1.51 1.69 1.82 1.92 1.98 2.21 2.30 2.36 2.21 2.29 2.26 2.17 2.04 2.04 1.95 1.91 2.05 2.24 2.34 2.33 2.31 2.23 2.34 2.47 2.42 2.25 2.13 1.96 1.81 1.57 1.47 1.56 1.61 1.62 1.64 1.77 1.89 1.74 1.63 1.50 1.52 1.61 1.76
1.30 1.63 1.80 1.94 2.11 2.25 2.42 2.59 2.55 2.63 2.55 2.50 2.46 2.38 2.45 2.51 2.43 2.51 2.63 2.71 2.73 2.77 2.78 2.68 2.80 2.60 2.53 2.37 2.07 1.87 1.66 1.60 1.67 1.62 1.70 1.70 1.80 1.83 1.82 1.72 1.58 1.58 1.73
1.35 1.65 1.90 2.07 2.33 2.60 2.67 2.84 2.77 2.92 3.05 3.14 3.28 3.17 3.04 3.11 3.11 3.17 3.15 3.19 3.21 3.27 3.14 3.09 3.08 2.87 2.70 2.65 2.26 2.08 1.92 1.76 1.73 1.69 1.66 1.67 1.62 1.54 1.62 1.70 1.74 1.58 1.67
1.81 1.88 1.99 2.14 2.35 2.55 2.85 3.19 3.34 3.42 3.64 3.78 3.89 4.03 3.99 3.96 4.08 4.12 4.02 3.92 3.78 3.66 3.47 3.35 3.17 3.00 2.77 2.69 2.57 2.24 1.83 1.59 1.57 1.50 1.51 1.62 1.62 1.54 1.56 1.64 1.68 1.60 1.50
2.05 2.08 2.16 2.28 2.54 2.83 3.21 3.66 4.08 4.25 4.38 4.41 4.45 4.66 4.76 4.79 4.96 5.08 5.00 4.80 4.57 4.24 3.81 3.47 3.27 3.11 2.85 2.81 2.77 2.67 2.14 1.75 1.48 1.22 1.28 1.34 1.38 1.47 1.45 1.44 1.51 1.59 1.52
2.04 2.13 2.26 2.57 2.99 3.43 3.91 4.42 4.86 5.13 5.17 5.11 4.83 4.95 5.09 5.06 5.13 5.30 5.28 5.03 4.66 4.11 3.62 3.43 3.34 3.21 3.02 2.93 2.79 2.83 2.43 2.05 1.72 1.33 1.13 1.06 1.12 1.15 1.16 1.21 1.27 1.37 1.37
2.06 2.23 2.36 2.70 3.24 3.72 4.18 4.85 5.37 5.65 5.82 5.92 5.71 5.43 5.28 5.11 4.97 4.85 4.70 4.30 3.84 3.50 3.25 3.16 3.15 2.97 2.94 2.85 2.77 2.48 2.26 2.03 1.84 1.54 1.25 1.07 1.04 1.03 1.03 1.03 1.12 1.30 1.36
2.04 2.05 2.13 2.54 3.13 3.86 4.57 5.12 5.61 5.99 6.15 6.10 5.75 5.39 4.99 4.64 4.21 3.84 3.48 3.17 3.02 2.82 2.61 2.53 2.52 2.48 2.37 2.31 2.31 2.25 2.17 1.97 1.71 1.54 1.36 1.19 1.15 1.07 1.02 1.03 1.09 1.17 1.27
1.71 1.85 2.07 2.40 3.06 3.80 4.41 4.96 5.34 5.70 5.75 5.49 5.06 4.61 4.30 3.93 3.46 2.99 2.73 2.50 2.34 2.16 1.95 1.83 1.81 1.86 1.93 2.01 2.07 2.05 2.01 1.98 1.85 1.76 1.61 1.41 1.33 1.28 1.15 1.10 1.13 1.19 1.30